Weather in Chatham-Kent

Canada     42°24′28″N   82°11′28″W
В апреле 2022 года жителям России запретили посещать сайт meteo.paraplan.net по решению Генеральной прокуратуры. Аудитория сайта уменьшилась в 10 раз. Владельцы сайта не видят смысла в поддержке погодного сервера в таких условиях. Сайт будет закрыт в октябре.
temp.,
°C
wind,
m/s
gust,
m/s
humid.,
%
clouds,
%
prec.,
mm/h
press.,
hPa
HPBL,
m
3 october, mon
mon323:00+7ene36470 0.0 102991
02:00+5ene345673 0.0 102965
05:00+5ene346087 0.0 102856
08:00+5ne346087 0.0 102964
11:00+12ne3442100 0.0 1030579
14:00+17ne342696 0.0 10281013
17:00+18nne3324100 0.0 10261047
20:00+10nne224796 0.0 102621
4 october, tue
tue423:00+7ne22585 0.0 102614
02:00+7ne22625 0.0 102610
05:00+6ne22655 0.0 102510
08:00+6nne22645 0.0 102611
11:00+15nne22355 0.0 1025460
14:00+20n22235 0.0 10231044
17:00+21nnw23203 0.0 10211126
20:00+13ne22407 0.0 102116
5 october, wed
wed523:00+11ne22443 0.0 102210
02:00+10ene11442 0.0 102110
05:00+9nnw22464 0.0 102110
08:00+10nne11481 0.0 102010
11:00+18s113031 0.0 1020382
14:00+22wsw322498 0.0 1019992
17:00+22wsw232343 0.0 1017862
20:00+15sse344549 0.0 101842
6 october, thu
thu623:00+13s334628 0.0 101731
02:00+12ssw235359 0.0 101719
05:00+12ssw3363100 0.0 101635
08:00+11ssw356852 0.0 101573
11:00+19sw573871 0.0 1015598
14:00+22ssw572972 0.0 10121094
17:00+19ssw61038100 0.0 10111079
20:00+16sw356724 0.1 101190
7 october, fri
fri723:00+13nw7118195 0.0 1012441
02:00+9wnw7117235 0.2 1014797
05:00+8wnw71065100 0.0 10151182
08:00+6nw8106499 0.0 10181070
11:00+7nw81051100 0.0 10201446
14:00+10wnw8104697 0.0 10201803
17:00+9wnw71247100 0.0 10201902
20:00+8nw6104899 0.0 10211357